星链-36922(STARLINK-36922)

导读

STARLINK-36922(NORAD编号68123)是SpaceX星链(Starlink)低轨互联网星座中的一颗卫星,属于Starlink大规模星座部署计划的组成部分。 作为星链星座的一员,它运行在近地轨道,采用Ku/Ka频段提供卫星互联网服务,旨在为全球偏远地区、海洋、航空等场景提供高速低延迟的网络连接,填补全球网络覆盖空白。 2026年SpaceX启动降轨计划,将数千颗星链卫星轨道高度从550公里降至480公里,STARLINK-36922也大概率在此计划中,降轨后可缩短故障卫星再入大气层时间,降低太空碎片碰撞风险,提升太空运行安全性。

基本信息
目录编号:
68123
目录名称:
STARLINK-36922
国际标识:
2026-044Y
轨道中心:
EARTH
卫星名称:
星链-36922
卫星全名:
星链-36922(STARLINK-36922)
卫星状态:
在轨 (已飞行142 天)
发射日期:
2026-03-08 UTC
国别 :
美国 (US)
星等 :
--
轨道信息
数据来源 国际轨道数据
星历时间: 2026-07-27T04:19:52+0800
1天前
查看轨道信息
半长轴: 6843.638km
偏心率: 0.0001631
轨道倾角: 97.283°
近地点辐角 89.363°
升交点赤经 167.656°
平近点角 270.780°
近地点: 464.384km
远地点: 466.618km
周期: 93.905分钟
每日圈数: 15.334592
详细信息
固有亮度:
5
最大亮度:
2.5
卫星平台:
Starlink V1.0
覆盖范围:
全球
运营商:
太空探索技术公司
运营商所在国:
美国
制造商(研发单位):
太空探索技术公司
制造商所在国:
美国
使用方式:
暂无
卫星简介
Starlink 计划是 SpaceX 推出的全球卫星互联网项目,通过发射低轨道卫星,为全球尤其是偏远地区提供高速、低延迟的互联网服务。自 2019 年起,Starlink 已部署数千颗卫星,旨在缩小全球数字鸿沟,推动互联网普及。该项目还为军事、航空等行业提供通信支持,带来广泛经济效益。
2D轨道图
3D轨道图
轨道高度分析图
轨道倾角分析图
轨道综合分析图
查看轨道综合分析图